Main page
Satellite images Climate Cyclones Lightning AirportsFAQ Languages Contact Newsletter About
Weather : Europe Africa North America South America Asia Australia-Oceania Others

, Hua Hin, Hua Hin Airport

48475

latitude: , longitude: Thailand, elevation: 12-35N m


METAR: VTPH 160900Z 05006KT 360V090 8000 FEW032 SCT095 28/20 Q1008 NOSIG